Regional Weather Roundup
Issued by NWS

Home | Current Version | Previous Version | Graphics & Text | Print | Product List | Glossary On
Versions: 1 2 3 4 5 6 7 8 9 10 11 12 13 14 15 16 17 18 19 20 21 22 23 24 25 26 27 28 29 30 31 32 33 34 35 36 37 38 39 40 41 42 43 44 45 46 47 48 49 50
000
ASUS43 KDMX 071706
RWRIA

WEATHER ROUNDUP FOR IOWA
NATIONAL WEATHER SERVICE DES MOINES IA
1100 AM CST WED DEC 07 2016

NOTE: "FAIR" INDICATES FEW OR NO CLOUDS BELOW 12,000 FEET WITH NO
SIGNIFICANT WEATHER AND/OR OBSTRUCTIONS TO VISIBILITY.

* - THESE STATIONS ARE NOT NWS STATIONS...THUS NOT UNDER NWS
QUALITY CONTROL.  THEY ALSO DO NOT REPORT WEATHER SUCH
AS PRECIPITATION OR FOG.

IAZ001>003-012>014-020>022-031>034-043>046-071800-
   NORTHWEST IOWA

CITY           SKY/WX    TMP DP  RH WIND       PRES   REMARKS
CARROLL *      MOSUNNY   19  10  68 W16G23    30.23F WCI   5
CHEROKEE *     CLOUDY    17   8  66 W16G23    30.24S WCI   2
DENISON *      CLOUDY    18   9  68 W13G20    30.25S WCI   4
LE MARS *      MOSUNNY   18   9  68 W17G23    30.28R WCI   2
ORANGE CITY *  CLOUDY    16   9  73 W25       30.22S WCI  -3
SHELDON *      CLOUDY    16   9  73 W22G28    30.19S WCI  -2
SIOUX CITY     CLOUDY    19   7  59 NW17      30.30R WCI   4
SPENCER        SUNNY     16   6  65 W31G40    30.19R WCI  -4
STORM LAKE *   CLOUDY    16   9  73 NW23      30.20S WCI  -2
$$

IAZ055>058-069>071-079>083-090>094-071800-
   SOUTHWEST IOWA

CITY           SKY/WX    TMP DP  RH WIND       PRES   REMARKS
ATLANTIC *     MOSUNNY   19  10  68 W16       30.29S WCI   5
AUDUBON *      CLOUDY    19  10  68 W12G17    30.26R WCI   7
CLARINDA *     CLOUDY    21  12  68 NW12      30.33R WCI   9
COUNCIL BLFS * CLOUDY    19   9  63 NW12      30.31R WCI   7
CRESTON *      MOSUNNY   19  10  68 NW21G28   30.26S WCI   3
HARLAN  *      CLOUDY    19  10  68 NW15G23   30.31S WCI   5
LAMONI         MOSUNNY   25  12  58 NW15G22   30.24R WCI  13
RED OAK *      CLOUDY    19  10  68 NW15G22   30.32S WCI   5
SHENANDOAH *   MOSUNNY   21  10  63 NW14      30.34R WCI   8
$$

IAZ047>049-059>061-072>074-084-071800-
   CENTRAL IOWA

CITY           SKY/WX    TMP DP  RH WIND       PRES   REMARKS
AMES           MOSUNNY   20  12  71 W17       30.22S WCI   5
ANKENY *       CLOUDY    21  10  63 W15G23    30.24F WCI   8
BOONE *        CLOUDY    18  10  73 W21       30.20F WCI   1
CHARITON *     CLOUDY    23  12  63 NW15      30.23S WCI  10
DES MOINES     CLOUDY    22  10  60 NW17      30.24S WCI   8
GRINNELL*      MOSUNNY   21  14  75 W14       30.21S WCI   8
KNOXVILLE *    MOSUNNY   21  10  63 NW15      30.21F WCI   8
MARSHALLTOWN   CLOUDY    19  12  74 W20       30.20S WCI   3
NEWTON *       CLOUDY    21  12  68 W16       30.21F WCI   7
PELLA *        MOSUNNY   23  13  65 NW13      30.23F WCI  11
PERRY *          N/A     20  14  76 W18       30.25S WCI   5
$$

IAZ004>006-015-016-023>025-035-036-071800-
   NORTH CENTRAL IOWA

CITY           SKY/WX    TMP DP  RH WIND       PRES   REMARKS
ALGONA *       SUNNY     19  10  68 W21G28    30.16S WCI   3
CLARION *      MOSUNNY   18  10  73 W16G24    30.18S WCI   3
ESTHERVILLE    SUNNY     17   9  70 W24       30.14F WCI  -1
FORT DODGE *   PTSUNNY   18   9  68 W15G21    30.21S WCI   3
MASON CITY     SUNNY     17   8  67 W20G31    30.14F WCI   1
FOREST CITY *    N/A     19  10  68 W20G28    30.13S WCI   4
WEBSTER CITY * MOSUNNY   18  10  73 W17       30.18S WCI   2
IOWA FALLS *     N/A     19  12  74 W18       30.19S WCI   4
$$

IAZ007>011-017>019-026>030-037>042-050>054-066-071800-
   NORTHEAST IOWA

CITY           SKY/WX    TMP DP  RH WIND       PRES   REMARKS
CEDAR RAPIDS   MOSUNNY   20  15  81 W18       30.17S WCI   5
CHARLES CITY * FLURRIES  16  10  79 W17       30.13S WCI   0
CLINTON *      MOSUNNY   24  18  77 W18       30.15S WCI  10
DECORAH *      PTSUNNY   16   9  73 VRB7G20   30.09S WCI   6
DUBUQUE        PTSUNNY   17  11  77 W17       30.12S WCI   1
MONTICELLO *   CLOUDY    19  12  73 W17       30.16R WCI   4
OELWEIN *      FLURRIES  16  12  86 W17       30.14S WCI   0
WATERLOO       PTSUNNY   18  10  71 W14       30.17S WCI   4
$$

IAZ064-065-067-068-078-071800-
   EAST CENTRAL IOWA

CITY           SKY/WX    TMP DP  RH WIND       PRES   REMARKS
DAVENPORT      SUNNY     25  17  72 W21       30.16F WCI  11
IOWA CITY      MOSUNNY   24  15  68 W15       30.21S WCI  11
MUSCATINE *    MOSUNNY   27  16  63 W14       30.20F WCI  15
QUAD CITIES    SUNNY     28  16  60 NW14      30.16F WCI  17
$$

IAZ062-063-075>077-085>089-095>099-071800-
   SOUTHEAST IOWA

CITY           SKY/WX    TMP DP  RH WIND       PRES   REMARKS
BURLINGTON     SUNNY     27  16  63 NW12      30.20R WCI  17
FAIRFIELD *    CLOUDY    25  14  63 NW15G22   30.19F WCI  12
FORT MADISON * PTSUNNY   28  16  59 W12       30.22S WCI  18
KEOKUK *       PTSUNNY   28  16  59 W9        30.22R WCI  20
OSKALOOSA *      N/A     24  15  67 NW17G23   30.20F WCI  10
CENTERVILLE *    N/A     25  12  58 NW13      30.23S WCI  13
OTTUMWA        PTSUNNY   24  11  57 W14       30.21F WCI  12
WASHINGTON *   CLOUDY    25  16  68 W15G23    30.21F WCI  12
$$

ABBREVIATIONS USED IN REMARKS
   TC - TEMPERATURES IN CELSIUS
  WCI - WIND CHILL INDEX
   HX - HEAT INDEX
  VSB - VISIBILITY
$$





USA.gov is the U.S. government's official web portal to all federal, state and local government web resources and services.